Location: Brno
(49.2000°N, 16.6330°E)
Time: 03:18:12
(UTC+01:00)

Cosmos 2227 - Visible Passes

Search period start: 21 November 2014 00:00
Search period end: 01 December 2014 00:00
Orbit: 835 x 861 km, 71.0° (Epoch: 20 November)

Date Brightness Start Highest point End Pass type
(mag) Time Alt. Az. Time Alt. Az. Time Alt. Az.
22 Nov 6.4 06:29:27 10° N 06:32:20 14° NNE 06:35:12 10° ENE visible
23 Nov 6.4 06:16:26 10° N 06:19:17 14° NNE 06:22:07 10° ENE visible
24 Nov 6.4 06:03:26 10° N 06:06:15 14° NNE 06:09:02 10° ENE visible
25 Nov 6.5 05:50:25 10° N 05:53:12 14° NNE 05:55:58 10° ENE visible
26 Nov 6.5 05:37:25 10° N 05:40:09 14° NNE 05:42:53 10° ENE visible
27 Nov 6.5 05:24:24 10° N 05:27:06 13° NNE 05:29:48 10° ENE visible
28 Nov 6.5 05:11:24 10° N 05:14:04 13° NNE 05:16:43 10° ENE visible
29 Nov 6.6 04:58:24 10° N 05:01:01 13° NNE 05:03:38 10° ENE visible
29 Nov 5.2 06:41:24 10° NNW 06:46:48 44° NE 06:52:09 10° SE visible
30 Nov 6.6 04:45:24 10° N 04:47:58 13° NNE 04:50:33 10° NE visible
30 Nov 5.2 06:28:23 10° NNW 06:33:46 43° NE 06:39:06 10° SE visible
